When you browse on this site, cookies collect data to enhance your experience and personalize the content and advertising you see.
Visit our Privacy Policy to learn more. By continuing to use the site, you agree to this use of cookies and data.
  • In Hungary
  • List of Countries
  • For 7 days
  • Water Temperature
  • Satellite Maps
  • Weather Map
  • News
  • Weather Widgets
  • user-avatar
    Login

    Hourly Weather Summerville

    Today, 10 December, Monday

    Time Temperature Precipitation Wind Pressure Humidity
    00:00 +4°C° 0 mm 3 mps 757 mmHg 87%
    01:00 +3°C° 0 mm 3 mps 757 mmHg 86%
    02:00 +3°C° 0.1 mm 3 mps 757 mmHg 87%
    03:00 +3°C° 0.1 mm 3 mps 757 mmHg 87%
    04:00 +3°C° 0.1 mm 3 mps 757 mmHg 88%
    05:00 +3°C° 0 mm 3 mps 758 mmHg 88%
    06:00 +3°C° 0 mm 3 mps 758 mmHg 88%
    07:00 +3°C° 0 mm 3 mps 759 mmHg 87%
    08:00 +3°C° 0 mm 3 mps 759 mmHg 86%
    09:00 +3°C° 0 mm 3 mps 760 mmHg 85%
    10:00 +4°C° 0 mm 4 mps 760 mmHg 84%
    11:00 +4°C° 0 mm 4 mps 760 mmHg 82%
    12:00 +4°C° 0 mm 4 mps 760 mmHg 81%
    13:00 +5°C° 0 mm 3 mps 760 mmHg 79%
    14:00 +5°C° 0 mm 3 mps 760 mmHg 80%
    15:00 +4°C° 0 mm 3 mps 761 mmHg 80%
    16:00 +4°C° 0 mm 3 mps 761 mmHg 81%
    17:00 +4°C° 0 mm 3 mps 761 mmHg 82%
    18:00 +3°C° 0 mm 3 mps 761 mmHg 83%
    19:00 +3°C° 0 mm 3 mps 762 mmHg 84%
    20:00 +3°C° 0 mm 3 mps 762 mmHg 84%
    21:00 +3°C° 0 mm 3 mps 762 mmHg 84%
    22:00 +1°C° 0 mm 4 mps 763 mmHg 84%
    23:00 +1°C° 0 mm 4 mps 763 mmHg 84%

    Tomorrow, 11 December, Tuesday

    Time Temperature Precipitation Wind Pressure Humidity
    00:00 +1°C° 0 mm 4 mps 763 mmHg 84%
    01:00 +1°C° 0 mm 4 mps 763 mmHg 84%
    02:00 +1°C° 0 mm 4 mps 763 mmHg 84%
    03:00 +1°C° 0 mm 4 mps 763 mmHg 84%
    04:00 +1°C° 0 mm 4 mps 763 mmHg 84%
    05:00 +1°C° 0 mm 4 mps 763 mmHg 83%
    06:00 0°C° 0 mm 4 mps 764 mmHg 82%
    07:00 0°C° 0 mm 4 mps 764 mmHg 81%
    08:00 +1°C° 0 mm 4 mps 765 mmHg 74%
    09:00 +3°C° 0 mm 4 mps 765 mmHg 67%
    10:00 +4°C° 0 mm 4 mps 766 mmHg 59%
    11:00 +6°C° 0 mm 4 mps 765 mmHg 56%
    12:00 +8°C° 0 mm 4 mps 765 mmHg 53%
    13:00 +10°C° 0 mm 4 mps 765 mmHg 49%
    14:00 +10°C° 0 mm 4 mps 765 mmHg 52%
    15:00 +10°C° 0 mm 4 mps 764 mmHg 55%
    16:00 +11°C° 0 mm 3 mps 764 mmHg 58%
    17:00 +9°C° 0 mm 3 mps 764 mmHg 65%
    18:00 +8°C° 0 mm 2 mps 765 mmHg 73%
    19:00 +6°C° 0 mm 2 mps 765 mmHg 80%
    20:00 +6°C° 0 mm 2 mps 765 mmHg 82%
    21:00 +6°C° 0 mm 2 mps 765 mmHg 83%
    22:00 +5°C° 0 mm 2 mps 765 mmHg 85%
    23:00 +5°C° 0 mm 2 mps 765 mmHg 85%

    Day after tomorrow, 12 December, Wednesday

    Time Temperature Precipitation Wind Pressure Humidity
    00:00 +4°C° 0 mm 2 mps 765 mmHg 85%
    01:00 +4°C° 0 mm 2 mps 765 mmHg 84%
    02:00 +4°C° 0 mm 2 mps 765 mmHg 82%
    03:00 +3°C° 0 mm 2 mps 765 mmHg 79%
    04:00 +3°C° 0 mm 2 mps 765 mmHg 77%
    05:00 +2°C° 0 mm 2 mps 765 mmHg 75%
    06:00 +2°C° 0 mm 2 mps 765 mmHg 74%
    07:00 +1°C° 0 mm 2 mps 765 mmHg 73%
    08:00 +3°C° 0 mm 2 mps 766 mmHg 65%
    09:00 +5°C° 0 mm 2 mps 766 mmHg 56%
    10:00 +7°C° 0 mm 2 mps 766 mmHg 48%
    11:00 +9°C° 0 mm 2 mps 766 mmHg 44%
    12:00 +10°C° 0 mm 2 mps 765 mmHg 39%
    13:00 +13°C° 0 mm 2 mps 765 mmHg 35%
    14:00 +13°C° 0 mm 2 mps 765 mmHg 38%
    15:00 +13°C° 0 mm 2 mps 765 mmHg 41%
    16:00 +13°C° 0 mm 2 mps 764 mmHg 44%
    17:00 +12°C° 0 mm 2 mps 765 mmHg 47%
    18:00 +9°C° 0 mm 2 mps 765 mmHg 50%
    19:00 +8°C° 0 mm 2 mps 766 mmHg 53%
    20:00 +8°C° 0 mm 2 mps 766 mmHg 54%
    21:00 +8°C° 0 mm 2 mps 766 mmHg 56%
    22:00 +8°C° 0 mm 1 mps 766 mmHg 57%
    23:00 +8°C° 0 mm 1 mps 766 mmHg 57%

    13 December, Thursday

    Time Temperature Precipitation Wind Pressure Humidity
    00:00 +8°C° 0 mm 1 mps 766 mmHg 58%
    01:00 +7°C° 0 mm 1 mps 766 mmHg 59%
    02:00 +7°C° 0 mm 1 mps 766 mmHg 59%
    03:00 +7°C° 0 mm 1 mps 766 mmHg 60%
    04:00 +7°C° 0 mm 1 mps 766 mmHg 61%
    05:00 +6°C° 0 mm 1 mps 766 mmHg 61%
    06:00 +6°C° 0 mm 1 mps 766 mmHg 60%
    07:00 +6°C° 0 mm 1 mps 767 mmHg 60%
    08:00 +8°C° 0 mm 1 mps 767 mmHg 56%
    09:00 +9°C° 0 mm 1 mps 768 mmHg 52%
    10:00 +11°C° 0 mm 1 mps 768 mmHg 47%
    11:00 +12°C° 0 mm 1 mps 768 mmHg 45%
    12:00 +14°C° 0 mm 1 mps 767 mmHg 43%
    13:00 +15°C° 0 mm 1 mps 767 mmHg 40%
    14:00 +15°C° 0 mm 1 mps 766 mmHg 46%
    15:00 +15°C° 0 mm 2 mps 766 mmHg 52%
    16:00 +15°C° 0 mm 2 mps 765 mmHg 58%
    17:00 +14°C° 0 mm 2 mps 765 mmHg 62%
    18:00 +14°C° 0 mm 2 mps 765 mmHg 66%
    19:00 +12°C° 0 mm 3 mps 765 mmHg 69%
    20:00 +12°C° 0 mm 3 mps 765 mmHg 69%
    21:00 +12°C° 0 mm 3 mps 765 mmHg 69%
    22:00 +13°C° 0 mm 3 mps 765 mmHg 69%
    23:00 +13°C° 0 mm 3 mps 764 mmHg 72%

    14 December, Friday

    Time Temperature Precipitation Wind Pressure Humidity
    00:00 +13°C° 0 mm 3 mps 763 mmHg 75%
    01:00 +14°C° 0 mm 4 mps 763 mmHg 77%
    02:00 +14°C° 0.7 mm 4 mps 762 mmHg 81%
    03:00 +15°C° 0.7 mm 4 mps 761 mmHg 85%
    04:00 +16°C° 0.7 mm 5 mps 761 mmHg 90%
    05:00 +16°C° 1.3 mm 5 mps 761 mmHg 91%
    06:00 +17°C° 1.3 mm 5 mps 760 mmHg 92%
    07:00 +17°C° 1.3 mm 5 mps 760 mmHg 93%
    08:00 +19°C° 1.3 mm 5 mps 760 mmHg 91%
    09:00 +20°C° 1.3 mm 6 mps 759 mmHg 89%
    10:00 +20°C° 1.3 mm 6 mps 759 mmHg 87%
    11:00 +20°C° 2.3 mm 6 mps 758 mmHg 88%
    12:00 +20°C° 2.3 mm 6 mps 757 mmHg 89%
    13:00 +21°C° 2.3 mm 6 mps 757 mmHg 89%
    14:00 +20°C° 3.7 mm 6 mps 756 mmHg 91%
    15:00 +20°C° 3.7 mm 5 mps 755 mmHg 92%
    16:00 +20°C° 3.7 mm 4 mps 754 mmHg 94%
    17:00 +20°C° 1.7 mm 5 mps 754 mmHg 92%
    18:00 +21°C° 1.7 mm 6 mps 754 mmHg 91%
    19:00 +21°C° 1.7 mm 7 mps 754 mmHg 89%
    20:00 +20°C° 1 mm 6 mps 754 mmHg 90%
    21:00 +19°C° 1 mm 5 mps 754 mmHg 90%
    22:00 +18°C° 1 mm 4 mps 754 mmHg 90%
    23:00 +18°C° 0.9 mm 4 mps 754 mmHg 91%

    15 December, Saturday

    Time Temperature Precipitation Wind Pressure Humidity
    00:00 +17°C° 0.9 mm 3 mps 753 mmHg 91%
    01:00 +17°C° 0.9 mm 3 mps 753 mmHg 92%
    02:00 +16°C° 0 mm 3 mps 753 mmHg 91%
    03:00 +15°C° 0 mm 4 mps 753 mmHg 90%
    04:00 +14°C° 0 mm 4 mps 753 mmHg 89%
    05:00 +14°C° 0 mm 4 mps 754 mmHg 89%
    06:00 +13°C° 0 mm 4 mps 754 mmHg 89%
    07:00 +13°C° 0 mm 4 mps 754 mmHg 89%
    08:00 +13°C° 0.1 mm 5 mps 755 mmHg 82%
    09:00 +13°C° 0.1 mm 6 mps 755 mmHg 75%
    10:00 +12°C° 0.1 mm 7 mps 756 mmHg 68%
    11:00 +14°C° 0 mm 7 mps 755 mmHg 63%
    12:00 +14°C° 0 mm 7 mps 755 mmHg 59%
    13:00 +15°C° 0 mm 8 mps 755 mmHg 54%
    14:00 +14°C° 0 mm 7 mps 756 mmHg 56%
    15:00 +12°C° 0 mm 7 mps 756 mmHg 57%
    16:00 +11°C° 0 mm 6 mps 756 mmHg 59%
    17:00 +12°C° 0 mm 5 mps 757 mmHg 62%
    18:00 +10°C° 0 mm 5 mps 758 mmHg 66%
    19:00 +9°C° 0 mm 5 mps 758 mmHg 70%
    20:00 +9°C° 0 mm 5 mps 758 mmHg 72%
    21:00 +8°C° 0 mm 4 mps 759 mmHg 73%
    22:00 +8°C° 0 mm 4 mps 759 mmHg 75%
    23:00 +8°C° 0 mm 5 mps 759 mmHg 75%
    Show more